[[{"header":{"parameterUnit":"m.s-1","parameterCategory":1,"la1":30.2991,"la2":30.254,"lo1":-89.0895,"lo2":-89.0444,"dy":0.0017,"dx":0.0017,"nx":28,"ny":28,"refTime":"2025-08-06T21:00:00:Z","depth":0,"parameterNumber":2,"parameterNumberName":"U-component_of_WINDS"},"data":[0,0,0,0,0,0,0,0,0,0,0,0,0,0,0,0,0,0,0,0,0,0,0,0,0,0,0,0,0,0,0,0,0,0,0,0,0,0,0,0,0,0,0,0,0,0,0,0,0,0,0,0,0,0,0,0,0,0,0.5542,0.5543,0,0.5642,0.5643,0.5644,0.5656,0.5655,0.5654,0.5653,0.5755,0.5758,0.5762,0,0,0,0,0,0,0,0,0,0,0,0,0,0.536,0.5363,0.5542,0.5543,0.5544,0.5641,0.5643,0.5644,0.5656,0.5655,0.5654,0.5653,0.5753,0.5758,0.5762,0,0,0,0,0,0,0,0,0,0,0,0,0,0.5447,0.5364,0.5542,0.5562,0.5565,0.5641,0.5643,0.5644,0.5656,0.5655,0.5653,0.5652,0.5752,0.5757,0.5763,0.5825,0,0,0.5779,0.5781,0,0,0,0,0,0,0,0,0.5442,0.5454,0.5558,0.5561,0.5564,0.5635,0.5616,0.5705,0.5657,0.5622,0.5653,0.5651,0.5716,0.5724,0.5746,0.583,0.5834,0.578,0.5783,0.5785,0.5787,0,0,0,0,0,0,0,0.5436,0.5449,0.5581,0.5559,0.5563,0.5565,0.5576,0.5633,0.5676,0.5625,0.5626,0.5637,0.5717,0.5741,0.5748,0.5836,0.5779,0.5784,0.5788,0.579,0.5972,0.5974,0,0,0,0,0,0,0.5426,0.5444,0.5578,0.5584,0.5498,0.557,0.5582,0.5614,0.5675,0.5683,0.5638,0.5638,0.5732,0.5742,0.5752,0.5828,0.5785,0.579,0.5793,0.5971,0.5973,0.5974,0,0,0,0,0,0,0.5422,0.5438,0.5574,0.5515,0.5532,0.5575,0.561,0.5616,0.564,0.5686,0.5693,0.5655,0.5731,0.5744,0.5806,0.5831,0.5793,0.5798,0.5969,0.5971,0.5974,0.598,0,0,0,0,0,0,0.5417,0.5437,0.5462,0.5515,0.5535,0.5628,0.5612,0.5619,0.5649,0.5649,0.5703,0.571,0.5731,0.5798,0.5811,0.5838,0.5802,0.5967,0.597,0.5973,0.5978,0.5982,0.5986,0,0,0,0,0,0.541,0.546,0.5463,0.5479,0.5568,0.5629,0.5641,0.5664,0.5651,0.5676,0.5705,0.5709,0.5826,0.5804,0.582,0.5848,0.5965,0.5969,0.5973,0.5976,0.5982,0.5986,0,0,0,0,0,0,0.5409,0.5468,0.5472,0.554,0.5579,0.5631,0.5664,0.5669,0.5713,0.5711,0.5737,0.575,0.581,0.5835,0.5809,0.591,0.5894,0.5901,0.5892,0.5897,0.5902,0.5894,0.5806,0,0,0,0,0,0.5417,0.5463,0.5511,0.5567,0.5586,0.5621,0.5649,0.5663,0.5705,0.5722,0.5755,0.5795,0.5841,0.587,0.5915,0.5981,0.5992,0.6008,0.6012,0.6015,0.6021,0.6055,0.6063,0.5986,0.5986,0.5986,0,0,0.5434,0.5471,0.5498,0.5567,0.56,0.5645,0.5635,0.5685,0.5718,0.5729,0.5789,0.5815,0.5861,0.5924,0.5954,0.5947,0.6044,0.602,0.6022,0.6026,0.606,0.6067,0.6073,0.5989,0.5988,0.5988,0,0,0.5487,0.552,0.5569,0.5601,0.565,0.5672,0.5684,0.5734,0.5751,0.5812,0.582,0.5859,0.5938,0.597,0.5997,0.6058,0.6062,0.6071,0.6094,0.6127,0.6133,0.6139,0.6159,0.6166,0.6077,0.6077,0.6077,0,0.5501,0.5571,0.5594,0.5642,0.5671,0.5682,0.5731,0.5761,0.5821,0.5841,0.5832,0.5929,0.5961,0.6031,0.6045,0.6067,0.608,0.6066,0.613,0.6136,0.6142,0.6161,0.6169,0.6078,0.6078,0.6078,0.6077,0,0.5585,0.5633,0.5667,0.5724,0.5757,0.5806,0.5834,0.5865,0.5875,0.5897,0.5957,0.5995,0.6047,0.6064,0.6076,0.6135,0.6129,0.6125,0.611,0.6149,0.6168,0.6176,0.6079,0.6078,0.6078,0.6078,0,0,0.5643,0.571,0.5722,0.5747,0.58,0.5837,0.5884,0.5934,0.5959,0.5999,0.6039,0.6103,0.6099,0.6129,0.6143,0.6172,0.6216,0.6165,0.6166,0.6172,0.6282,0.6284,0.6293,0.6219,0.622,0.6222,0.6277,0,0.5702,0.5788,0.5808,0.5881,0.5924,0.5934,0.5975,0.6011,0.6032,0.6071,0.6095,0.614,0.6132,0.6149,0.6178,0.6205,0.6238,0.6201,0.6255,0.6257,0.6243,0.6303,0.6307,0.6358,0.6285,0.6286,0.6287,0,0.5783,0.5824,0.5901,0.5945,0.5964,0.6001,0.6047,0.6084,0.6124,0.6138,0.6169,0.618,0.6228,0.6209,0.6275,0.6249,0.6271,0.6287,0.629,0.6296,0.6275,0.631,0.6375,0.6382,0.63,0.6299,0.6298,0,0.5815,0.589,0.5945,0.5966,0.602,0.6045,0.6069,0.6107,0.6135,0.6174,0.6192,0.6237,0.6261,0.6295,0.6316,0.6301,0.6379,0.6363,0.6391,0.639,0.6408,0.6406,0.6476,0.6422,0.6422,0.6422,0.6422,0,0.5878,0.5925,0.596,0.5994,0.6046,0.6068,0.6118,0.6141,0.6175,0.6212,0.6223,0.6257,0.6284,0.6321,0.6338,0.6389,0.64,0.6411,0.6415,0.641,0.6409,0.6426,0.6423,0.6424,0.6424,0.6423,0.6423,0,0.5924,0.595,0.6011,0.6056,0.6068,0.6104,0.6142,0.6174,0.6195,0.6242,0.6254,0.6287,0.6331,0.6356,0.6412,0.6423,0.6479,0.6482,0.6466,0.6468,0.6494,0.649,0.6577,0.6589,0.6527,0.6528,0.6529,0,0.5963,0.5999,0.6047,0.6073,0.6097,0.6138,0.6166,0.6188,0.6216,0.6263,0.6289,0.6334,0.6372,0.6442,0.647,0.6512,0.6515,0.6543,0.6522,0.6515,0.6515,0.6512,0.6515,0.6546,0.6547,0.6547,0.6548,0,0.6028,0.6039,0.6079,0.6123,0.6155,0.6191,0.6226,0.6246,0.6274,0.6305,0.635,0.6379,0.6435,0.648,0.6523,0.6546,0.6551,0.6554,0.6562,0.6558,0.6547,0.6552,0.6475,0.6552,0.6552,0.6551,0.6551,0.6551,0.6072,0.6103,0.6141,0.6185,0.6213,0.6245,0.6277,0.6301,0.6339,0.6387,0.6397,0.6445,0.6481,0.654,0.6564,0.66,0.6595,0.6608,0.6611,0.6613,0.6614,0.6541,0.6608,0.6608,0.6608,0.6608,0.6608,0,0.6137,0.6161,0.6201,0.6249,0.6282,0.6284,0.6322,0.6349,0.6391,0.6425,0.6461,0.6512,0.6554,0.6584,0.6626,0.6649,0.6652,0.666,0.6658,0.6663,0.6617,0.6605,0.6656,0.6656,0.6656,0.6656,0.6656,0.6656,0.6174,0.6227,0.6241,0.6307,0.6331,0.6378,0.6399,0.6428,0.6454,0.6511,0.6546,0.6565,0.6596,0.664,0.6678,0.6686,0.67,0.6707,0.6715,0.6672,0.6666,0.6662,0.665,0.671,0.671,0.6758,0.6758,0.6758]},{"header":{"parameterUnit":"m.s-1","parameterCategory":1,"la1":30.2991,"la2":30.254,"lo1":-89.0895,"lo2":-89.0444,"dy":0.0017,"dx":0.0017,"nx":28,"ny":28,"refTime":"2025-08-06T21:00:00:Z","depth":0,"parameterNumber":3,"parameterNumberName":"V-component_of_WINDS"},"data":[0,0,0,0,0,0,0,0,0,0,0,0,0,0,0,0,0,0,0,0,0,0,0,0,0,0,0,0,0,0,0,0,0,0,0,0,0,0,0,0,0,0,0,0,0,0,0,0,0,0,0,0,0,0,0,0,0,0,3.041,3.041,0,3.0431,3.0431,3.0431,3.0451,3.0452,3.0452,3.0452,3.0469,3.047,3.047,0,0,0,0,0,0,0,0,0,0,0,0,0,3.0382,3.0382,3.041,3.0411,3.0411,3.0431,3.0431,3.0431,3.0451,3.0452,3.0452,3.0452,3.0469,3.047,3.047,0,0,0,0,0,0,0,0,0,0,0,0,0,3.0398,3.0383,3.041,3.0423,3.0425,3.0431,3.0431,3.0431,3.0451,3.0452,3.0452,3.0453,3.0469,3.047,3.047,3.0464,0,0,3.0471,3.0471,0,0,0,0,0,0,0,0,3.0397,3.0399,3.0421,3.0422,3.0424,3.0439,3.0427,3.0442,3.0451,3.0441,3.0452,3.0453,3.0459,3.046,3.0463,3.0464,3.0465,3.0471,3.0471,3.0471,3.0471,0,0,0,0,0,0,0,3.0396,3.0398,3.0418,3.0421,3.0423,3.0426,3.0429,3.043,3.0447,3.0442,3.0444,3.0446,3.046,3.0462,3.0463,3.0465,3.0471,3.0471,3.0471,3.0471,3.0458,3.0458,0,0,0,0,0,0,3.0393,3.0397,3.0418,3.0419,3.0411,3.0426,3.0429,3.0434,3.0447,3.045,3.0446,3.0447,3.0462,3.0463,3.0464,3.0455,3.0471,3.0471,3.0472,3.0459,3.0458,3.0458,0,0,0,0,0,0,3.0393,3.0395,3.0417,3.0408,3.0411,3.0426,3.0431,3.0434,3.0437,3.045,3.0453,3.0446,3.0462,3.0464,3.0463,3.0456,3.0472,3.0472,3.046,3.0459,3.0458,3.0439,0,0,0,0,0,0,3.0392,3.0395,3.0394,3.0408,3.0412,3.0417,3.0431,3.0434,3.0438,3.044,3.0451,3.0453,3.0463,3.0462,3.0463,3.0457,3.0472,3.046,3.0459,3.0458,3.044,3.0438,3.0435,0,0,0,0,0,3.0391,3.0388,3.0394,3.0396,3.0412,3.0417,3.0419,3.0431,3.0437,3.0436,3.0443,3.0453,3.0457,3.0462,3.0463,3.0457,3.0461,3.046,3.0458,3.0441,3.0438,3.0435,0,0,0,0,0,0,3.0373,3.039,3.0397,3.0399,3.0406,3.042,3.0419,3.0428,3.0432,3.0434,3.0447,3.0449,3.0446,3.0451,3.0457,3.0449,3.046,3.0459,3.0446,3.0443,3.0441,3.044,3.0472,0,0,0,0,0,3.0369,3.0373,3.0388,3.0388,3.0391,3.0404,3.0407,3.0416,3.0423,3.0426,3.0434,3.0439,3.0441,3.0443,3.0446,3.0441,3.0442,3.0437,3.0434,3.0432,3.0431,3.0425,3.0422,3.0454,3.0454,3.0454,0,0,3.0361,3.0371,3.0374,3.0385,3.0391,3.0393,3.0407,3.041,3.041,3.0426,3.0426,3.0431,3.0438,3.0434,3.0433,3.0438,3.0422,3.043,3.0429,3.0429,3.0424,3.0421,3.0418,3.0453,3.0453,3.0453,0,0,3.0349,3.0358,3.0358,3.0363,3.0373,3.0381,3.0381,3.0393,3.0397,3.0397,3.0408,3.0408,3.0412,3.0415,3.0418,3.0402,3.0409,3.0402,3.0389,3.0384,3.0381,3.0379,3.0371,3.0368,3.0401,3.0401,3.0401,0,3.0338,3.0343,3.0356,3.0357,3.0361,3.0374,3.0373,3.0377,3.0387,3.0388,3.0394,3.0397,3.0403,3.0399,3.0394,3.0396,3.0394,3.0401,3.0381,3.0379,3.0377,3.0369,3.0366,3.04,3.04,3.04,3.04,0,3.0328,3.0331,3.033,3.0339,3.0342,3.0341,3.0352,3.0353,3.0359,3.0366,3.0363,3.037,3.0373,3.0373,3.038,3.0368,3.0371,3.0379,3.0389,3.0372,3.0365,3.0363,3.0398,3.0399,3.0399,3.0399,0,0,3.0308,3.0321,3.032,3.0323,3.0333,3.0334,3.0332,3.0336,3.0335,3.034,3.0338,3.0339,3.0345,3.0347,3.0354,3.035,3.0333,3.0357,3.0358,3.0351,3.0317,3.0311,3.0308,3.0338,3.0337,3.0337,3.0316,0,3.0296,3.0296,3.0305,3.0302,3.0303,3.0314,3.0312,3.0316,3.0321,3.0321,3.0325,3.0326,3.0335,3.0336,3.0331,3.0336,3.0326,3.0338,3.0333,3.0333,3.0331,3.0305,3.0299,3.0279,3.0314,3.0313,3.0313,0,3.0283,3.0287,3.0283,3.029,3.029,3.0289,3.0291,3.0291,3.0295,3.0298,3.0299,3.0306,3.0302,3.0312,3.0305,3.0312,3.031,3.0312,3.0311,3.0311,3.0322,3.0302,3.0273,3.027,3.0309,3.031,3.031,0,3.0266,3.027,3.0268,3.027,3.0278,3.0276,3.0279,3.0283,3.0283,3.0283,3.0283,3.0283,3.0283,3.0281,3.0287,3.0294,3.0278,3.0289,3.0279,3.0278,3.0275,3.0275,3.0244,3.0275,3.0275,3.0275,3.0275,0,3.0252,3.0249,3.026,3.0258,3.0254,3.0263,3.0258,3.0261,3.0264,3.0261,3.027,3.0267,3.0275,3.0272,3.0276,3.0267,3.0268,3.0268,3.027,3.0267,3.0267,3.0266,3.0267,3.0275,3.0275,3.0275,3.0275,0,3.0233,3.0241,3.0239,3.0245,3.0246,3.0243,3.0247,3.0244,3.0249,3.0245,3.0244,3.025,3.0246,3.0251,3.0248,3.0251,3.0239,3.0242,3.0238,3.0239,3.0227,3.0228,3.0194,3.0189,3.0225,3.0224,3.0224,0,3.0224,3.0222,3.0227,3.0226,3.0229,3.0227,3.0227,3.0234,3.0233,3.0234,3.0231,3.0227,3.0226,3.0218,3.0221,3.0217,3.022,3.0208,3.022,3.0216,3.0218,3.0218,3.0216,3.0206,3.0206,3.0205,3.0205,0,3.0206,3.0208,3.0209,3.0208,3.0208,3.0208,3.0209,3.0207,3.0214,3.0211,3.0208,3.0206,3.0202,3.0197,3.0194,3.0194,3.02,3.0201,3.0198,3.0196,3.0193,3.0192,3.0231,3.0202,3.0203,3.0203,3.0203,3.0203,3.019,3.0188,3.019,3.0189,3.0189,3.0189,3.0186,3.0188,3.0186,3.0183,3.0187,3.0181,3.018,3.0176,3.0175,3.0169,3.0174,3.017,3.0169,3.0168,3.0165,3.0194,3.0169,3.0169,3.0169,3.0169,3.0169,0,3.0171,3.0173,3.0171,3.0171,3.0169,3.0174,3.0174,3.0171,3.0166,3.0165,3.0162,3.0156,3.015,3.0151,3.0146,3.014,3.0142,3.0139,3.0139,3.0138,3.0163,3.0165,3.0137,3.0137,3.0137,3.0137,3.0137,3.0137,3.0161,3.0156,3.0158,3.0151,3.0152,3.0147,3.0146,3.0144,3.0143,3.0136,3.0131,3.0132,3.013,3.0124,3.0118,3.0118,3.0115,3.011,3.0111,3.0134,3.0137,3.014,3.0142,3.011,3.0109,3.0087,3.0086,3.0086]}]]